Location: Bermeries
(50.2863°N, 3.7551°E)
Time: 06:33:53
(UTC+00:00)

Helios 1A Rocket - Pass Details

Date: 23 May 2024
Orbit: 520 x 543 km, 98.3° (Epoch: 19 June)

Event Time Altitude Azimuth Distance (km) Brightness Sun altitude
Exits shadow 00:10:31 24° 124° (SE) 1,128 4.1 -18.8°
Maximum altitude 00:12:21 41° 69° (ENE) 781 3.8 -18.8°
Drops below altitude 10° 00:16:00 10° 358° (N) 1,793 6.6 -18.7°
Sets 00:18:11 0° 352° (N) 2,684 7.7 -18.6°
